#timestamp,LO_Frequency,Hit,StdDev 
1705899615.0,286046998.4,N
1705899615.9,286046998.4,N
1705899635.8,286046998.5,N
1705899655.6,286047000.7,N
1705899675.4,286047000.4,N
1705899695.3,286046998.1,N
1705899715.1,286046999.8,N
1705899735.9,286046999.7,N
1705899755.7,286046999.9,N
1705899775.5,286047000.2,N
1705899795.4,286047000.6,N
1705899815.2,286047000.7,N
1705899835.1,286047002.2,N
1705899836.0,286047002.2,N
1705899855.8,286047001.6,N
1705899875.6,286047001.5,N
1705899895.5,286047001.7,N
1705899915.3,286046999.7,N
1705899935.1,286046999.9,N
1705899955.9,286047000.5,N
1705899975.7,286047000.6,N
1705899995.6,286046999.7,N
1705900015.4,286047000.3,N
1705900035.2,286047002.8,N
1705900055.1,286047002.0,N
1705900056.0,286047002.0,N
1705900075.8,286047004.3,Y
1705900095.7,286047003.9,P
1705900115.5,286047004.2,N
1705900135.3,286047003.5,N
1705900155.2,286047003.7,N
1705900175.0,286047004.1,N
1705900175.9,286047004.1,Y
1705900195.8,286047000.0,P
1705900215.6,286047000.8,N
1705900235.4,286047001.0,N
1705900255.3,286047000.0,N
1705900275.1,286047000.3,N
1705900295.8,286047001.0,N
1705900315.7,286046998.5,N
1705900335.5,286046996.6,N
1705900355.4,286046999.3,N
1705900375.2,286046998.7,N
1705900395.0,286047000.1,N
1705900395.9,286047000.1,N
1705900415.8,286046999.8,N
1705900435.6,286046998.5,N
1705900455.4,286046998.7,N
1705900475.3,286046998.6,N
1705900495.1,286046998.9,N
1705900515.9,286046999.0,N
1705900535.7,286046998.5,N
1705900555.5,286046998.9,N
1705900575.4,286046996.7,N
1705900595.2,286046997.0,N
1705900615.1,286046996.7,N
1705900616.0,286046996.7,N
1705900635.8,286046999.5,N
1705900655.6,286046998.8,N
1705900675.5,286046999.1,N
1705900695.3,286046997.5,N
1705900715.2,286046995.3,Y
1705900735.9,286046997.0,P
1705900755.7,286046997.3,N
1705900775.6,286046996.6,P
1705900795.4,286046999.4,N
1705900815.3,286046996.5,Y
1705900835.1,286047000.8,P
1705900836.0,286047000.8,N
1705900855.8,286047002.3,N
1705900875.7,286047002.4,N
1705900895.5,286047000.6,N
1705900915.3,286047000.8,N
1705900935.2,286046999.7,N
1705900955.0,286047000.7,N
1705900955.9,286047000.7,N
1705900975.8,286046998.2,N
1705900995.6,286047002.3,N
1705901015.4,286047002.6,N
1705901035.3,286047001.8,N
1705901055.1,286047002.7,N
1705901075.9,286046999.8,N
1705901095.7,286046999.7,N
1705901115.5,286047002.4,N
1705901135.4,286047002.2,N
1705901155.2,286047001.0,N
1705901175.0,286047002.6,N
1705901175.9,286047002.6,N
1705901195.8,286047002.8,N
1705901215.6,286047002.1,N
1705901235.5,286047002.2,N
1705901255.3,286046999.8,N
1705901275.1,286047000.2,N
1705901295.9,286046998.1,N
1705901315.7,286047001.0,N
1705901335.5,286046998.4,N
1705901355.4,286046998.8,N
1705901375.2,286046998.5,N
1705901395.1,286046998.4,N
1705901396.0,286046998.4,N
1705901415.8,286046998.3,N
1705901435.6,286046998.5,N
1705901455.5,286046997.0,N
1705901475.3,286046996.6,N
1705901495.2,286046997.7,N
1705901515.9,286046999.5,N
1705901535.7,286046999.2,N
1705901555.6,286046998.7,N
1705901575.4,286046998.9,N
1705901595.2,286046998.4,N
1705901615.1,286047001.1,N
1705901616.0,286047001.1,N
1705901635.8,286046998.4,N
1705901655.7,286046999.6,N
1705901675.5,286046999.1,N
1705901695.3,286046996.6,N
1705901715.2,286046995.3,N
1705901735.0,286046997.8,N
1705901735.9,286046997.8,N
1705901755.8,286046994.9,Y
1705901775.6,286046997.3,P
1705901795.4,286046995.7,P
1705901815.3,286046995.7,P
1705901835.1,286046995.8,Y
1705901855.8,286046999.5,P
1705901875.7,286046996.5,N
1705901895.5,286046996.5,N
1705901915.4,286046998.5,N
1705901935.2,286046998.1,N
1705901955.0,286046998.8,N
1705901955.9,286046998.8,N
1705901975.8,286046999.6,N
1705901995.6,286046998.7,N
1705902015.4,286046998.7,N
1705902035.3,286046999.0,N
1705902055.1,286046999.0,N
1705902075.9,286046996.6,Y
1705902095.7,286046998.3,P
1705902115.5,286047000.8,P
1705902135.4,286046998.5,N
1705902155.2,286046998.3,N
1705902175.1,286046998.9,N
1705902176.0,286046998.9,N
1705902195.8,286046999.6,N
1705902215.6,286046997.6,N
1705902235.5,286046999.0,N
1705902255.3,286046997.7,N
1705902275.1,286046997.9,N
1705902295.9,286046997.5,N
1705902315.7,286046995.9,Y
1705902335.6,286046997.2,P
1705902355.4,286046997.2,P
1705902375.2,286046999.1,N
1705902395.1,286046999.6,N
1705902396.0,286046999.6,N
1705902415.8,286046999.5,N
1705902435.6,286046998.1,N
1705902455.5,286046998.5,N
1705902475.3,286046998.4,N
1705902495.2,286046999.2,N
1705902515.9,286046998.8,N
1705902535.7,286046999.3,N
1705902555.6,286046997.2,Y
1705902575.4,286046998.9,P
1705902595.2,286046998.5,P
1705902615.1,286046998.8,P
1705902616.0,286046998.8,Y
1705902635.8,286046998.2,P
1705902655.7,286046998.5,P
1705902675.5,286046998.5,P
1705902695.3,286046997.2,Y
1705902715.2,286046998.4,P
1705902735.0,286046998.5,P
1705902735.9,286046998.5,P
1705902755.8,286047001.0,Y
1705902775.6,286047000.0,P
1705902795.4,286047001.2,N
1705902815.3,286047000.6,N
1705902835.1,286047000.1,N
1705902855.8,286047000.0,N
1705902875.7,286047000.3,N
1705902895.5,286047000.9,N
1705902915.4,286047000.5,N
1705902935.2,286047002.8,Y
1705902955.0,286047000.0,P
1705902955.9,286047000.0,N
1705902975.8,286047000.1,N
1705902995.6,286047000.0,N
1705903015.5,286047000.0,N
1705903035.3,286046998.2,Y
1705903055.1,286046998.5,P
1705903075.9,286046998.4,N
1705903095.7,286046999.0,N
1705903115.5,286047011.9,Y
1705903135.4,286047000.6,P
1705903155.2,286046998.2,N
1705903175.1,286046998.8,N
1705903176.0,286046998.8,N
1705903195.8,286046999.2,N
